Palma de Mallorca, Spain

9:47 AM CEST on March 28, 2017 (GMT +0200)
Palma De Mallorca

Weather History for LEPA - February, 2011

Change the Weather History Date:

Thursday, February 3, 2011

  Actual Average Record
Temperature  
Mean Temperature 48 °F -  
Max Temperature 59 °F 58 °F 68 °F (2000)
Min Temperature 37 °F 39 °F 30 °F (2005)
Degree Days  
Heating Degree Days 17    
Moisture  
Dew Point 38 °F    
Average Humidity 67    
Maximum Humidity 93    
Minimum Humidity 29    
Precipitation  
Precipitation 0.00 in 0.05 in - ()
Sea Level Pressure  
Sea Level Pressure 30.31 in    
Wind  
Wind Speed 5 mph ()    
Max Wind Speed 20 mph    
Max Gust Speed 31 mph    
Visibility 6.7 miles    
Events      
Averages and records for this station are not official NWS values.
T = Trace of Precipitation, MM = Missing Value Source: Averaged Metar Reports

Daily Weather History Graph

Daily Weather History Graph

Search for Another Location

Airport or City:

Trip Planner

Search our weather history database for the weather conditions in past years. The results will help you decide how hot, cold, wet, or windy it might be!

Date:

Astronomy

Feb. 03, 2011 Rise Set
Actual Time 7:55 AM CET 6:11 PM CET
Civil Twilight 7:26 AM CET 6:39 PM CET
Nautical Twilight 6:54 AM CET 7:11 PM CET
Astronomical Twilight 6:23 AM CET 7:42 PM CET
Moon 7:49 AM CET (2/3) 6:49 PM CET (2/3)
Length of Visible Light 11h 12m
Length of Day
10h 15m
New Moon, 0% of the Moon is Illuminated
Feb 3
New Moon
Feb 11
First Quarter
Feb 18
Full
Feb 25
Last Quarter
Mar 4
New

Hourly Weather History & Observations

Time (CET) Temp. Windchill Dew Point Humidity Pressure Visibility Wind Dir Wind Speed Gust Speed Precip Events Conditions
12:00 AM 46.4 °F 44.3 °F 41.0 °F 81% 30.24 in 6.2 mi NNW 4.6 mph - N/A   Partly Cloudy
12:30 AM 48.2 °F - 41.0 °F 76% 30.27 in 6.2 mi NW 2.3 mph - N/A   Partly Cloudy
1:00 AM 47 °F - 40 °F 69% 30.27 in 9 mi NNW 1.2 mph - -   Scattered Clouds
1:00 AM 46.4 °F - 41.0 °F 81% 30.27 in 6.2 mi Variable 2.3 mph - N/A   Partly Cloudy
1:30 AM 44.6 °F - 39.2 °F 81% 30.27 in 6.2 mi NW 2.3 mph - N/A   Partly Cloudy
2:00 AM 44.6 °F 43.1 °F 39.2 °F 81% 30.27 in 6.2 mi NNW 3.5 mph - N/A   Partly Cloudy
2:30 AM 42.8 °F 40.1 °F 37.4 °F 81% 30.27 in 6.2 mi North 4.6 mph - N/A   Partly Cloudy
3:00 AM 39.2 °F 37.0 °F 35.6 °F 87% 30.27 in 6.2 mi NE 3.5 mph - N/A   Partly Cloudy
3:30 AM 41.0 °F - 39.2 °F 93% 30.27 in 6.2 mi Variable 1.2 mph - N/A   Partly Cloudy
4:00 AM 41.0 °F - 35.6 °F 81% 30.24 in 6.2 mi Variable 2.3 mph - N/A   Partly Cloudy
4:30 AM 41.0 °F 37.1 °F 37.4 °F 87% 30.24 in 6.2 mi NNE 5.8 mph - N/A   Partly Cloudy
5:00 AM 41.0 °F 38.0 °F 35.6 °F 81% 30.27 in 6.2 mi NE 4.6 mph - N/A   Partly Cloudy
5:30 AM 44.6 °F - 37.4 °F 76% 30.27 in 6.2 mi Calm Calm - N/A   Partly Cloudy
6:00 AM 41.0 °F 35.8 °F 37.4 °F 87% 30.27 in - NE 8.1 mph - N/A   Clear
6:30 AM 41.0 °F 38.0 °F 35.6 °F 81% 30.27 in - NNE 4.6 mph - N/A   Clear
7:00 AM 42 °F - 36 °F 74% 30.29 in 9 mi Calm Calm - -  
7:00 AM 42.8 °F - 37.4 °F 81% 30.27 in - NNE 2.3 mph - N/A   Clear
7:30 AM 42.8 °F 41.1 °F 37.4 °F 81% 30.27 in 6.2 mi North 3.5 mph - N/A   Partly Cloudy
8:00 AM 37.4 °F 34.9 °F 33.8 °F 87% 30.30 in 6.2 mi NNE 3.5 mph - N/A   Partly Cloudy
8:30 AM 39.2 °F - 35.6 °F 87% 30.30 in 6.2 mi Variable 1.2 mph - N/A   Partly Cloudy
9:00 AM 42.8 °F - 39.2 °F 87% 30.30 in 6.2 mi Variable 1.2 mph - N/A   Partly Cloudy
9:30 AM 46.4 °F - 39.2 °F 76% 30.30 in 6.2 mi Variable 1.2 mph - N/A   Partly Cloudy
10:00 AM 50.0 °F - 42.8 °F 76% 30.33 in 6.2 mi North 2.3 mph - N/A   Partly Cloudy
10:30 AM 55.4 °F - 44.6 °F 67% 30.33 in 6.2 mi NNW 5.8 mph - N/A   Partly Cloudy
11:00 AM 57.2 °F - 37.4 °F 48% 30.33 in 6.2 mi NNE 5.8 mph - N/A   Partly Cloudy
11:30 AM 57.2 °F - 35.6 °F 44% 30.33 in 6.2 mi North 9.2 mph - N/A   Partly Cloudy
12:00 PM 57.2 °F - 32.0 °F 38% 30.33 in 6.2 mi NNE 15.0 mph - N/A   Partly Cloudy
12:30 PM 57.2 °F - 32.0 °F 38% 30.33 in 6.2 mi NNE 19.6 mph - N/A   Partly Cloudy
1:00 PM 58 °F - 34 °F 29% 30.33 in 31 mi NNE 15.0 mph - -   Scattered Clouds
1:00 PM 57.2 °F - 35.6 °F 44% 30.33 in 6.2 mi NNE 15.0 mph - N/A   Partly Cloudy
1:30 PM 57.2 °F - 37.4 °F 48% 30.33 in 6.2 mi NE 19.6 mph 31.1 mph N/A   Partly Cloudy
2:00 PM 57.2 °F - 37.4 °F 48% 30.30 in 6.2 mi NE 19.6 mph 31.1 mph N/A   Partly Cloudy
2:30 PM 57.2 °F - 37.4 °F 48% 30.30 in 6.2 mi ENE 16.1 mph - N/A   Partly Cloudy
3:00 PM 57.2 °F - 39.2 °F 51% 30.30 in 6.2 mi NE 16.1 mph - N/A   Partly Cloudy
3:30 PM 57.2 °F - 39.2 °F 51% 30.30 in - ENE 12.7 mph - N/A   Clear
4:00 PM 59.0 °F - 41.0 °F 51% 30.30 in 6.2 mi NE 11.5 mph - N/A   Partly Cloudy
4:30 PM 59.0 °F - 35.6 °F 42% 30.30 in - NNE 9.2 mph - N/A   Clear
5:00 PM 57.2 °F - 33.8 °F 41% 30.30 in 6.2 mi NNW 8.1 mph - N/A   Partly Cloudy
5:30 PM 55.4 °F - 41.0 °F 58% 30.33 in 6.2 mi WNW 6.9 mph - N/A   Partly Cloudy
6:00 PM 53.6 °F - 42.8 °F 67% 30.33 in - West 5.8 mph - N/A   Clear
6:30 PM 53.6 °F - 41.0 °F 62% 30.33 in - WNW 6.9 mph - N/A   Clear
7:00 PM 52 °F - 42 °F 58% 30.35 in 19 mi NW 8.1 mph - -   Scattered Clouds
7:00 PM 51.8 °F - 41.0 °F 67% 30.33 in - WNW 10.4 mph - N/A   Clear
7:30 PM 51.8 °F - 39.2 °F 62% 30.36 in - WNW 4.6 mph - N/A   Clear
8:00 PM 51.8 °F - 41.0 °F 67% 30.36 in - Variable 2.3 mph - N/A   Clear
8:30 PM 51.8 °F - 39.2 °F 62% 30.36 in - WSW 3.5 mph - N/A   Clear
9:00 PM 50.0 °F - 39.2 °F 66% 30.36 in - Variable 1.2 mph - N/A   Clear
9:30 PM 50.0 °F - 37.4 °F 62% 30.36 in - Calm Calm - N/A   Clear
10:00 PM 48.2 °F - 39.2 °F 71% 30.36 in - Calm Calm - N/A   Clear
10:30 PM 46.4 °F - 37.4 °F 71% 30.36 in - Variable 1.2 mph - N/A   Clear
11:00 PM 42.8 °F - 39.2 °F 87% 30.39 in - Variable 1.2 mph - N/A   Clear
11:30 PM 42.8 °F - 39.2 °F 87% 30.39 in - Calm Calm - N/A   Clear